Weather in Canggu

Indonesia     8°39′37″S   115°08′28″E
temp.,
°C
wind,
m/s
gust,
m/s
humid.,
%
clouds,
%
prec.,
mm/h
press.,
hPa
HPBL,
m
10 may, mon
mon1023:00+28ese4570100 0.0 1011909
02:00+27ese447442 0.1 1009799
05:00+27se447624 0.5 1009722
08:00+27ese567784 1.4 1011736
11:00+28ese667852 1.1 1011734
14:00+28ese677678 2.0 1008850
17:00+28se777425 0.1 1008915
20:00+28se777540 0.2 1010916
11 may, tue
tue1123:00+28ese7773100 0.2 10111047
02:00+28ese6773100 0.3 10101023
05:00+28ese7871100 0.1 10091022
08:00+28ese777099 0.1 10101272
11:00+28ese776928 0.1 10101096
14:00+28se67696 0.1 1008992
17:00+28se667328 0.0 1007943
20:00+28ese55716 0.0 1009842
12 may, wed
wed1223:00+28ese56665 0.0 10091000
02:00+28ese667291 0.0 10081046
05:00+27e667452 0.2 1009855
08:00+28ese777197 0.4 1010841
11:00+28ese8867100 0.0 1009918
14:00+28se77676 0.0 1007877
17:00+28ese667120 0.0 1007954
20:00+28ese7772100 0.0 10091007
13 may, thu
thu1323:00+28ese777243 0.1 10091006
02:00+28ese677455 0.6 1008984
05:00+28ese777778 0.4 1008891
08:00+28ese787787 0.8 1009911
11:00+28ese9971100 0.2 1009958
14:00+28ese8870100 0.2 1006845
17:00+28ese777142 0.0 1006848
20:00+28ese887596 0.0 10081018
14 may, fri
fri1423:00+28ese8977100 0.3 1009982
02:00+28ese10107793 1.0 10081063
05:00+28ese101076100 0.5 10081010
08:00+28ese10117675 0.7 10091035
11:00+28ese10107317 0.1 10091145
14:00+28ese89728 0.1 10071066
17:00+28ese887228 0.0 10071058
20:00+28ese887258 0.0 10091157